Weather History for Lynchburg, VA

Change the Weather History Date:

Saturday, October 20, 2012

  Actual Average Record
Temperature  
Mean Temperature 54 °F 55 °F  
Max Temperature 65 °F 67 °F 85 °F (1993)
Min Temperature 42 °F 43 °F 25 °F (1972)
Degree Days  
Heating Degree Days 11 10  
Month to date heating degree days 167 154  
Since 1 July heating degree days 213 215  
Cooling Degree Days 0 0  
Month to date cooling degree days 11 11  
Year to date cooling degree days 1244 1027  
Growing Degree Days 3 (Base 50)    
Moisture  
Dew Point 38 °F    
Average Humidity 66    
Maximum Humidity 96    
Minimum Humidity 36    
Precipitation  
Precipitation 0.00 in 0.10 in 3.35 in (1995)
Month to date precipitation 1.19 1.97  
Year to date precipitation 26.09 33.78  
Snow  
Snow 0.00 in - - ()
Month to date snowfall 0.0  
Since 1 July snowfall 0.0  
Since 1 September snowfall 0.0  
Snow Depth 0.00 in    
Sea Level Pressure  
Sea Level Pressure 29.84 in    
Wind  
Wind Speed 3 mph (West)    
Max Wind Speed 14 mph    
Max Gust Speed 23 mph    
Visibility 10 miles    
Events      
T = Trace of Precipitation, MM = Missing Value Source: NWS Daily Summary

Daily Weather History Graph

Daily Weather History Graph

Search for Another Location

Airport:

Trip Planner

Search our weather history database for the weather conditions in past years. The results will help you decide how hot, cold, wet, or windy it might be!

Date:

Astronomy

Oct. 20, 2012 Rise Set
Actual Time 7:29 AM EDT 6:32 PM EDT
Civil Twilight 7:03 AM EDT 6:58 PM EDT
Nautical Twilight 6:33 AM EDT 7:29 PM EDT
Astronomical Twilight 6:02 AM EDT 7:59 PM EDT
Moon 1:00 PM EDT (10/20) 11:19 PM EDT (10/20)
Length of Visible Light 11h 55m
Length of Day
11h 02m
Waxing Crescent, 34% of the Moon is Illuminated
Oct 20
Waxing Crescent
Oct 21
First Quarter
Oct 29
Full
Nov 6
Last Quarter
Nov 13
New

Hourly Weather History & Observations

Time (EDT) Temp. Windchill Dew Point Humidity Pressure Visibility Wind Dir Wind Speed Gust Speed Precip Events Conditions
12:54 AM 45.0 °F 42.6 °F 41.0 °F 86% 29.73 in 10.0 mi South 4.6 mph - N/A   Clear
1:54 AM 48.0 °F - 41.0 °F 77% 29.72 in 10.0 mi SW 3.5 mph - N/A   Clear
2:54 AM 48.0 °F - 41.0 °F 77% 29.73 in 10.0 mi Calm Calm - N/A   Clear
3:54 AM 46.9 °F - 39.9 °F 77% 29.74 in 10.0 mi Calm Calm - N/A   Clear
4:54 AM 51.1 °F - 39.0 °F 63% 29.75 in 10.0 mi WSW 4.6 mph - N/A   Clear
5:54 AM 46.0 °F - 39.9 °F 79% 29.77 in 10.0 mi Calm Calm - N/A   Clear
6:54 AM 43.0 °F - 41.0 °F 93% 29.79 in 10.0 mi Calm Calm - N/A   Clear
7:54 AM 42.1 °F - 39.9 °F 92% 29.81 in 10.0 mi Calm Calm - N/A   Clear
8:54 AM 48.9 °F - 44.1 °F 83% 29.83 in 10.0 mi SSW 3.5 mph - N/A   Clear
9:54 AM 57.9 °F - 41.0 °F 53% 29.84 in 10.0 mi WSW 8.1 mph - N/A   Clear
10:54 AM 60.1 °F - 39.9 °F 47% 29.84 in 10.0 mi West 4.6 mph - N/A   Clear
11:54 AM 61.0 °F - 37.9 °F 42% 29.84 in 10.0 mi Variable 4.6 mph 17.3 mph N/A   Clear
12:54 PM 62.1 °F - 37.0 °F 39% 29.83 in 10.0 mi West 11.5 mph 18.4 mph N/A   Clear
1:54 PM 63.0 °F - 37.0 °F 38% 29.82 in 10.0 mi WNW 6.9 mph 18.4 mph N/A   Clear
2:54 PM 64.0 °F - 37.0 °F 37% 29.81 in 10.0 mi Variable 6.9 mph - N/A   Partly Cloudy
3:54 PM 62.1 °F - 37.0 °F 39% 29.83 in 10.0 mi West 4.6 mph - N/A   Clear
4:54 PM 62.1 °F - 36.0 °F 38% 29.85 in 10.0 mi Variable 5.8 mph - N/A   Scattered Clouds
5:54 PM 60.1 °F - 35.1 °F 39% 29.88 in 10.0 mi Variable 5.8 mph 16.1 mph N/A   Mostly Cloudy
6:54 PM 55.9 °F - 35.1 °F 45% 29.91 in 10.0 mi WNW 4.6 mph - N/A   Clear
7:54 PM 52.0 °F - 36.0 °F 54% 29.94 in 10.0 mi Calm Calm - N/A   Clear
8:54 PM 48.0 °F - 37.0 °F 66% 29.94 in 10.0 mi Calm Calm - N/A   Clear
9:54 PM 46.9 °F - 36.0 °F 66% 29.96 in 10.0 mi West 3.5 mph - N/A   Clear
10:54 PM 48.9 °F - 36.0 °F 61% 29.97 in 10.0 mi NW 3.5 mph - N/A   Clear
11:54 PM 50.0 °F - 35.1 °F 57% 29.97 in 10.0 mi Calm Calm - N/A   Clear